Hourly Weather Kitee

Today, 2 August, Monday

Time Temperature Precipitation Wind Pressure Humidity
00:00 +13°C° 0 mm 3 mps 741 mmHg 95%
01:00 +13°C° 0 mm 3 mps 742 mmHg 96%
02:00 +13°C° 0 mm 3 mps 742 mmHg 97%
03:00 +14°C° 0 mm 3 mps 742 mmHg 96%
04:00 +14°C° 0 mm 3 mps 742 mmHg 95%
05:00 +16°C° 0 mm 3 mps 742 mmHg 95%
06:00 +16°C° 0 mm 3 mps 742 mmHg 92%
07:00 +16°C° 0 mm 3 mps 743 mmHg 90%
08:00 +16°C° 0 mm 3 mps 743 mmHg 88%
09:00 +18°C° 0 mm 3 mps 743 mmHg 80%
10:00 +19°C° 0 mm 3 mps 743 mmHg 72%
11:00 +20°C° 0 mm 3 mps 743 mmHg 64%
12:00 +20°C° 0 mm 3 mps 743 mmHg 62%
13:00 +20°C° 0 mm 3 mps 743 mmHg 59%
14:00 +21°C° 0 mm 3 mps 742 mmHg 57%
15:00 +20°C° 0 mm 3 mps 742 mmHg 61%
16:00 +19°C° 0 mm 3 mps 742 mmHg 64%
17:00 +19°C° 0 mm 3 mps 742 mmHg 68%
18:00 +17°C° 0.2 mm 3 mps 741 mmHg 77%
19:00 +16°C° 0.2 mm 2 mps 741 mmHg 85%
20:00 +15°C° 0.2 mm 2 mps 741 mmHg 94%
21:00 +15°C° 2.1 mm 2 mps 740 mmHg 95%
22:00 +13°C° 2.1 mm 3 mps 739 mmHg 96%
23:00 +13°C° 2.1 mm 4 mps 738 mmHg 97%

Tomorrow, 3 August, Tuesday

Time Temperature Precipitation Wind Pressure Humidity
00:00 +13°C° 6.4 mm 4 mps 737 mmHg 97%
01:00 +13°C° 6.4 mm 5 mps 736 mmHg 97%
02:00 +13°C° 6.4 mm 6 mps 735 mmHg 97%
03:00 +13°C° 4.4 mm 6 mps 734 mmHg 97%
04:00 +13°C° 4.4 mm 6 mps 734 mmHg 97%
05:00 +12°C° 4.4 mm 7 mps 733 mmHg 97%
06:00 +13°C° 3 mm 6 mps 734 mmHg 96%
07:00 +13°C° 3 mm 6 mps 735 mmHg 96%
08:00 +14°C° 3 mm 6 mps 735 mmHg 95%
09:00 +14°C° 0.5 mm 6 mps 736 mmHg 95%
10:00 +14°C° 0.5 mm 6 mps 736 mmHg 95%
11:00 +14°C° 0.5 mm 6 mps 737 mmHg 94%
12:00 +13°C° 0.4 mm 5 mps 737 mmHg 94%
13:00 +13°C° 0.4 mm 5 mps 738 mmHg 94%
14:00 +13°C° 0.4 mm 5 mps 739 mmHg 94%
15:00 +12°C° 0.6 mm 5 mps 739 mmHg 94%
16:00 +12°C° 0.6 mm 5 mps 740 mmHg 95%
17:00 +10°C° 0.6 mm 5 mps 741 mmHg 95%
18:00 +10°C° 0.4 mm 5 mps 742 mmHg 94%
19:00 +11°C° 0.4 mm 4 mps 742 mmHg 93%
20:00 +10°C° 0.4 mm 4 mps 743 mmHg 93%
21:00 +10°C° 0 mm 4 mps 743 mmHg 91%
22:00 +10°C° 0 mm 4 mps 744 mmHg 90%
23:00 +10°C° 0 mm 4 mps 744 mmHg 88%

Day after tomorrow, 4 August, Wednesday

Time Temperature Precipitation Wind Pressure Humidity
00:00 +10°C° 0 mm 4 mps 745 mmHg 86%
01:00 +10°C° 0 mm 4 mps 745 mmHg 84%
02:00 +10°C° 0 mm 4 mps 746 mmHg 82%
03:00 +10°C° 0 mm 4 mps 746 mmHg 82%
04:00 +10°C° 0 mm 4 mps 746 mmHg 81%
05:00 +10°C° 0 mm 3 mps 747 mmHg 81%
06:00 +11°C° 0 mm 4 mps 747 mmHg 74%
07:00 +13°C° 0 mm 4 mps 747 mmHg 67%
08:00 +14°C° 0 mm 4 mps 748 mmHg 60%
09:00 +15°C° 0 mm 4 mps 748 mmHg 55%
10:00 +18°C° 0 mm 4 mps 749 mmHg 50%
11:00 +19°C° 0 mm 4 mps 749 mmHg 45%
12:00 +19°C° 0 mm 4 mps 749 mmHg 44%
13:00 +19°C° 0 mm 3 mps 750 mmHg 43%
14:00 +19°C° 0 mm 3 mps 750 mmHg 41%
15:00 +19°C° 0 mm 3 mps 750 mmHg 44%
16:00 +19°C° 0 mm 2 mps 750 mmHg 46%
17:00 +20°C° 0 mm 1 mps 751 mmHg 48%
18:00 +19°C° 0 mm 1 mps 751 mmHg 52%
19:00 +18°C° 0 mm 1 mps 751 mmHg 57%
20:00 +16°C° 0 mm 1 mps 751 mmHg 61%
21:00 +15°C° 0 mm 2 mps 752 mmHg 64%
22:00 +15°C° 0 mm 2 mps 752 mmHg 67%
23:00 +14°C° 0 mm 2 mps 752 mmHg 70%

5 August, Thursday

Time Temperature Precipitation Wind Pressure Humidity
00:00 +14°C° 0 mm 2 mps 752 mmHg 73%
01:00 +14°C° 0 mm 2 mps 753 mmHg 75%
02:00 +14°C° 0 mm 2 mps 753 mmHg 77%
03:00 +13°C° 0 mm 2 mps 753 mmHg 78%
04:00 +13°C° 0 mm 2 mps 753 mmHg 80%
05:00 +13°C° 0 mm 2 mps 753 mmHg 81%
06:00 +14°C° 0 mm 2 mps 754 mmHg 73%
07:00 +16°C° 0 mm 2 mps 754 mmHg 64%
08:00 +17°C° 0 mm 2 mps 754 mmHg 56%
09:00 +18°C° 0 mm 2 mps 754 mmHg 52%
10:00 +19°C° 0 mm 3 mps 754 mmHg 48%
11:00 +20°C° 0 mm 3 mps 754 mmHg 44%
12:00 +20°C° 0 mm 3 mps 754 mmHg 42%
13:00 +21°C° 0 mm 3 mps 754 mmHg 41%
14:00 +21°C° 0 mm 3 mps 754 mmHg 39%
15:00 +21°C° 0 mm 2 mps 754 mmHg 40%
16:00 +21°C° 0 mm 2 mps 754 mmHg 40%
17:00 +21°C° 0 mm 1 mps 754 mmHg 41%
18:00 +20°C° 0 mm 1 mps 755 mmHg 50%
19:00 +18°C° 0 mm 1 mps 755 mmHg 59%
20:00 +15°C° 0 mm 1 mps 755 mmHg 67%
21:00 +15°C° 0 mm 1 mps 755 mmHg 71%
22:00 +14°C° 0 mm 1 mps 755 mmHg 76%
23:00 +13°C° 0 mm 1 mps 755 mmHg 80%

6 August, Friday

Time Temperature Precipitation Wind Pressure Humidity
00:00 +13°C° 0 mm 1 mps 756 mmHg 81%
01:00 +13°C° 0 mm 1 mps 756 mmHg 82%
02:00 +13°C° 0 mm 1 mps 756 mmHg 82%
03:00 +13°C° 0 mm 2 mps 756 mmHg 82%
04:00 +13°C° 0 mm 2 mps 756 mmHg 81%
05:00 +13°C° 0 mm 2 mps 756 mmHg 81%
06:00 +15°C° 0 mm 2 mps 756 mmHg 74%
07:00 +16°C° 0 mm 2 mps 756 mmHg 67%
08:00 +18°C° 0 mm 3 mps 756 mmHg 61%
09:00 +19°C° 0 mm 3 mps 756 mmHg 55%
10:00 +21°C° 0 mm 3 mps 756 mmHg 49%
11:00 +22°C° 0 mm 3 mps 756 mmHg 44%
12:00 +22°C° 0 mm 3 mps 756 mmHg 42%
13:00 +24°C° 0 mm 3 mps 756 mmHg 40%
14:00 +24°C° 0 mm 3 mps 756 mmHg 39%
15:00 +24°C° 0 mm 3 mps 755 mmHg 41%
16:00 +22°C° 0 mm 3 mps 755 mmHg 43%
17:00 +23°C° 0 mm 2 mps 755 mmHg 45%
18:00 +20°C° 0 mm 2 mps 755 mmHg 52%
19:00 +19°C° 0 mm 2 mps 755 mmHg 59%
20:00 +17°C° 0 mm 2 mps 754 mmHg 67%
21:00 +17°C° 0 mm 3 mps 754 mmHg 65%
22:00 +15°C° 0 mm 4 mps 754 mmHg 64%
23:00 +15°C° 0 mm 4 mps 754 mmHg 63%

7 August, Saturday

Time Temperature Precipitation Wind Pressure Humidity
00:00 +14°C° 0 mm 4 mps 754 mmHg 64%
01:00 +14°C° 0 mm 4 mps 754 mmHg 64%
02:00 +13°C° 0 mm 4 mps 754 mmHg 65%
03:00 +14°C° 0 mm 5 mps 753 mmHg 64%
04:00 +14°C° 0 mm 5 mps 753 mmHg 64%
05:00 +14°C° 0 mm 5 mps 753 mmHg 64%
06:00 +14°C° 0 mm 6 mps 753 mmHg 63%
07:00 +15°C° 0 mm 6 mps 753 mmHg 62%
08:00 +15°C° 0 mm 6 mps 752 mmHg 62%
09:00 +15°C° 0.5 mm 7 mps 752 mmHg 70%
10:00 +14°C° 0.5 mm 7 mps 752 mmHg 79%
11:00 +12°C° 0.5 mm 7 mps 752 mmHg 87%
12:00 +12°C° 0.4 mm 7 mps 752 mmHg 89%
13:00 +12°C° 0.4 mm 7 mps 752 mmHg 91%
14:00 +12°C° 0.4 mm 7 mps 753 mmHg 94%
15:00 +12°C° 0 mm 7 mps 753 mmHg 93%
16:00 +13°C° 0 mm 6 mps 753 mmHg 93%
17:00 +13°C° 0 mm 6 mps 753 mmHg 92%
18:00 +13°C° 0 mm 6 mps 753 mmHg 91%
19:00 +13°C° 0 mm 5 mps 753 mmHg 89%
20:00 +13°C° 0 mm 5 mps 753 mmHg 88%
21:00 +13°C° 0 mm 5 mps 753 mmHg 87%
22:00 +13°C° 0 mm 4 mps 754 mmHg 85%
23:00 +14°C° 0 mm 4 mps 754 mmHg 84%
Show more